Change the Weather History Date:

Sunday, November 11, 2012

  Actual Average (KDMN) Record (KDMN)
Temperature  
Mean Temperature 35 °F 52 °F  
Max Temperature 46 °F 68 °F 83 °F (1973)
Min Temperature 24 °F 36 °F 10 °F (1950)
Degree Days  
Heating Degree Days 30    
Moisture  
Dew Point 12 °F    
Average Humidity 42    
Maximum Humidity 74    
Minimum Humidity 16    
Precipitation  
Precipitation 0.00 in 0.01 in 0.47 in (1951)
Month to date precipitation 0.21  
Year to date precipitation 10.16  
Sea Level Pressure  
Sea Level Pressure 30.19 in    
Wind  
Wind Speed 14 mph (NW)    
Max Wind Speed 24 mph    
Max Gust Speed 30 mph    
Visibility 10 miles    
Events      
T = Trace of Precipitation, MM = Missing Value Source: NWS Daily Summary

Daily Weather History Graph

Daily Weather History Graph

Search for Another Location

Airport or City:

Trip Planner

Search our weather history database for the weather conditions in past years. The results will help you decide how hot, cold, wet, or windy it might be!

Date:

Astronomy

Nov. 11, 2012 Rise Set
Actual Time 6:39 AM MST 5:13 PM MST
Civil Twilight 6:13 AM MST 5:39 PM MST
Nautical Twilight 5:43 AM MST 6:09 PM MST
Astronomical Twilight 5:14 AM MST 6:38 PM MST
Moon 4:03 AM MST (11/11) 3:34 PM MST (11/11)
Length of Visible Light 11h 26m
Length of Day
10h 34m
Waning Crescent, 7% of the Moon is Illuminated
Nov 11
Waning Crescent
Nov 13
New
Nov 20
First Quarter
Nov 28
Full
Dec 6
Last Quarter

Hourly Weather History & Observations

Time (MST) Temp. Windchill Dew Point Humidity Pressure Visibility Wind Dir Wind Speed Gust Speed Precip Events Conditions
12:15 AM 37.4 °F 27.8 °F 21.2 °F 52% 30.01 in 10.0 mi NW 17.3 mph 25.3 mph N/A   Scattered Clouds
12:35 AM 35.6 °F 24.0 °F 23.0 °F 60% 30.02 in 10.0 mi NW 23.0 mph - N/A   Mostly Cloudy
12:55 AM 35.6 °F 23.7 °F 24.8 °F 65% 30.03 in 10.0 mi NW 24.2 mph 29.9 mph N/A   Partly Cloudy
1:15 AM 33.8 °F 23.5 °F 24.8 °F 70% 30.03 in 10.0 mi NW 16.1 mph 24.2 mph N/A   Partly Cloudy
1:35 AM 33.8 °F 23.9 °F 24.8 °F 70% 30.04 in 10.0 mi WNW 15.0 mph 19.6 mph N/A   Scattered Clouds
1:55 AM 33.8 °F 23.9 °F 24.8 °F 70% 30.04 in 10.0 mi WNW 15.0 mph - N/A   Scattered Clouds
2:15 AM 33.8 °F 26.4 °F 24.8 °F 70% 30.04 in 10.0 mi WNW 9.2 mph - N/A   Mostly Cloudy
2:35 AM 33.8 °F 23.9 °F 21.2 °F 60% 30.05 in 10.0 mi NW 15.0 mph - N/A   Scattered Clouds
2:55 AM 33.8 °F 23.2 °F 19.4 °F 56% 30.05 in 10.0 mi WNW 17.3 mph 24.2 mph N/A   Clear
3:15 AM 33.8 °F 23.9 °F 21.2 °F 60% 30.05 in 10.0 mi NW 15.0 mph - N/A   Mostly Cloudy
3:35 AM 32.0 °F 23.0 °F 23.0 °F 69% 30.06 in 10.0 mi NW 11.5 mph 18.4 mph N/A   Mostly Cloudy
3:55 AM 32.0 °F 22.1 °F 23.0 °F 69% 30.07 in 10.0 mi WNW 13.8 mph 17.3 mph N/A   Mostly Cloudy
4:15 AM 32.0 °F 23.6 °F 23.0 °F 69% 30.07 in 10.0 mi NW 10.4 mph - N/A   Partly Cloudy
4:35 AM 32.0 °F 23.0 °F 23.0 °F 69% 30.08 in 10.0 mi NW 11.5 mph - N/A   Clear
4:55 AM 30.2 °F 20.2 °F 21.2 °F 69% 30.09 in 10.0 mi NW 12.7 mph - N/A   Clear
5:15 AM 28.4 °F 18.5 °F 21.2 °F 74% 30.10 in 10.0 mi WNW 11.5 mph - N/A   Clear
5:55 AM 28.4 °F 19.7 °F 19.4 °F 69% 30.12 in 10.0 mi WNW 9.2 mph - N/A   Clear
6:15 AM 30.2 °F 21.3 °F 19.4 °F 64% 30.13 in 10.0 mi WNW 10.4 mph - N/A   Clear
6:55 AM 28.4 °F 19.7 °F 19.4 °F 69% 30.15 in 10.0 mi WNW 9.2 mph - N/A   Clear
7:15 AM 30.2 °F 22.6 °F 19.4 °F 64% 30.16 in 10.0 mi NW 8.1 mph - N/A   Clear
7:55 AM 32.0 °F 23.6 °F 17.6 °F 55% 30.17 in 10.0 mi WNW 10.4 mph - N/A   Clear
8:35 AM 35.6 °F 28.0 °F 17.6 °F 48% 30.19 in 10.0 mi WNW 10.4 mph - N/A   Clear
9:15 AM 37.4 °F 28.9 °F 14.0 °F 38% 30.21 in 10.0 mi West 13.8 mph - N/A   Clear
9:35 AM 37.4 °F 27.8 °F 8.6 °F 30% 30.21 in 10.0 mi West 17.3 mph 21.9 mph N/A   Clear
9:55 AM 39.2 °F 29.6 °F 6.8 °F 26% 30.21 in 10.0 mi NW 19.6 mph - N/A   Clear
10:15 AM 39.2 °F 29.8 °F 5.0 °F 24% 30.21 in 10.0 mi NW 18.4 mph 24.2 mph N/A   Clear
10:35 AM 39.2 °F 30.2 °F 6.8 °F 26% 30.22 in 10.0 mi NW 17.3 mph 21.9 mph N/A   Clear
10:55 AM 41.0 °F 32.2 °F 1.4 °F 19% 30.21 in 10.0 mi WNW 18.4 mph 25.3 mph N/A   Clear
11:15 AM 41.0 °F 33.1 °F 3.2 °F 21% 30.21 in 10.0 mi WNW 15.0 mph 24.2 mph N/A   Clear
11:35 AM 41.0 °F 32.5 °F -0.4 °F 18% 30.21 in 10.0 mi WNW 17.3 mph 21.9 mph N/A   Clear
11:55 AM 42.8 °F 35.1 °F -0.4 °F 16% 30.20 in 10.0 mi WNW 16.1 mph 25.3 mph N/A   Clear
12:15 PM 42.8 °F 36.2 °F 1.4 °F 18% 30.20 in 10.0 mi NW 12.7 mph 23.0 mph N/A   Clear
12:35 PM 42.8 °F 35.8 °F 5.0 °F 21% 30.20 in 10.0 mi NW 13.8 mph 20.7 mph N/A   Clear
12:55 PM 44.6 °F 38.4 °F 5.0 °F 20% 30.19 in 10.0 mi WNW 12.7 mph 25.3 mph N/A   Clear
1:15 PM 44.6 °F 39.7 °F 3.2 °F 18% 30.18 in 10.0 mi WNW 9.2 mph 19.6 mph N/A   Clear
1:35 PM 44.6 °F 38.8 °F 6.8 °F 21% 30.18 in 10.0 mi West 11.5 mph 17.3 mph N/A   Clear
1:55 PM 44.6 °F 37.4 °F 6.8 °F 21% 30.18 in 10.0 mi WNW 16.1 mph 19.6 mph N/A   Clear
2:15 PM 44.6 °F 37.8 °F 6.8 °F 21% 30.18 in 10.0 mi West 15.0 mph 29.9 mph N/A   Clear
2:35 PM 46.4 °F 40.1 °F 6.8 °F 20% 30.19 in 10.0 mi WNW 15.0 mph 24.2 mph N/A   Clear
2:55 PM 44.6 °F 37.8 °F 6.8 °F 21% 30.19 in 10.0 mi West 15.0 mph 21.9 mph N/A   Clear
3:15 PM 44.6 °F 39.7 °F 6.8 °F 21% 30.19 in 10.0 mi WNW 9.2 mph - N/A   Clear
3:35 PM 44.6 °F 38.8 °F 6.8 °F 21% 30.20 in 10.0 mi WNW 11.5 mph 23.0 mph N/A   Clear
3:55 PM 44.6 °F 38.4 °F 6.8 °F 21% 30.20 in 10.0 mi WNW 12.7 mph - N/A   Clear
4:15 PM 44.6 °F 38.4 °F 6.8 °F 21% 30.21 in 10.0 mi West 12.7 mph - N/A   Clear
4:35 PM 44.6 °F 38.4 °F 6.8 °F 21% 30.22 in 10.0 mi WNW 12.7 mph 17.3 mph N/A   Clear
4:55 PM 42.8 °F 36.6 °F 8.6 °F 25% 30.23 in 10.0 mi WNW 11.5 mph - N/A   Clear
5:15 PM 41.0 °F 34.3 °F 8.6 °F 26% 30.23 in 10.0 mi West 11.5 mph - N/A   Clear
5:35 PM 39.2 °F 32.5 °F 8.6 °F 28% 30.24 in 10.0 mi WNW 10.4 mph - N/A   Clear
5:55 PM 37.4 °F 30.3 °F 8.6 °F 30% 30.25 in 10.0 mi WNW 10.4 mph - N/A   Clear
6:15 PM 33.8 °F 25.8 °F 8.6 °F 35% 30.26 in 10.0 mi NW 10.4 mph - N/A   Clear
6:35 PM 32.0 °F 24.8 °F 8.6 °F 38% 30.27 in 10.0 mi NNW 8.1 mph - N/A   Clear
6:55 PM 32.0 °F 25.6 °F 10.4 °F 41% 30.28 in 10.0 mi NNW 6.9 mph - N/A   Clear
7:15 PM 32.0 °F 24.2 °F 10.4 °F 41% 30.29 in 10.0 mi NNW 9.2 mph - N/A   Clear
7:35 PM 33.8 °F 25.8 °F 10.4 °F 38% 30.30 in 10.0 mi North 10.4 mph - N/A   Clear
7:55 PM 32.0 °F 23.0 °F 10.4 °F 41% 30.32 in 10.0 mi North 11.5 mph - N/A   Clear
8:15 PM 32.0 °F 24.2 °F 10.4 °F 41% 30.32 in 10.0 mi North 9.2 mph - N/A   Clear
8:35 PM 28.4 °F 19.7 °F 10.4 °F 47% 30.33 in 10.0 mi NNW 9.2 mph - N/A   Clear
8:55 PM 26.6 °F 16.8 °F 8.6 °F 47% 30.34 in 10.0 mi North 10.4 mph - N/A   Clear
9:15 PM 26.6 °F 16.8 °F 8.6 °F 47% 30.34 in 10.0 mi North 10.4 mph - N/A   Clear
9:35 PM 28.4 °F 19.1 °F 8.6 °F 43% 30.34 in 10.0 mi North 10.4 mph - N/A   Clear
10:15 PM 28.4 °F 19.1 °F 10.4 °F 47% 30.35 in 10.0 mi North 10.4 mph - N/A   Clear
10:35 PM 26.6 °F 18.2 °F 10.4 °F 51% 30.35 in 10.0 mi North 8.1 mph - N/A   Clear
11:15 PM 24.8 °F 15.3 °F 8.6 °F 50% 30.35 in 10.0 mi North 9.2 mph - N/A   Clear
11:35 PM 28.4 °F 20.4 °F 8.6 °F 43% 30.35 in 10.0 mi North 8.1 mph - N/A   Clear
11:55 PM 24.8 °F 15.3 °F 8.6 °F 50% 30.35 in 10.0 mi North 9.2 mph - N/A   Clear